Location: Roanoke
(37.2710°N, 79.9420°W)
Time: 14:02:17
(UTC-04:00)

Cosmos 1441 Rocket - Visible Passes

Search period start: 26 July 2016 00:00
Search period end: 05 August 2016 00:00
Orbit: 500 x 545 km, 81.1° (Epoch: 25 July)

Date Brightness Start Highest point End Pass type
(mag) Time Alt. Az. Time Alt. Az. Time Alt. Az.
26 Jul 4.0 04:12:53 10° N 04:16:48 53° E 04:19:18 21° SSE visible
27 Jul 4.2 04:00:01 10° N 04:03:52 46° ENE 04:05:35 28° SE visible
27 Jul 5.4 05:38:42 10° WNW 05:39:22 10° W 05:40:02 10° W visible
28 Jul 4.4 03:47:07 10° N 03:50:56 40° ENE 03:51:59 33° ESE visible
28 Jul 5.3 05:24:59 10° WNW 05:26:29 12° W 05:27:05 12° W visible
29 Jul 4.6 03:34:16 10° N 03:37:58 36° ENE 03:38:27 34° E visible
29 Jul 5.2 05:11:37 10° WNW 05:13:33 13° W 05:13:33 13° W visible
30 Jul 4.8 03:21:25 10° NNE 03:25:00 32° ENE 03:25:00 32° ENE visible
30 Jul 5.2 04:58:22 10° NW 05:00:06 15° WNW 05:00:06 15° WNW visible
31 Jul 5.2 03:08:35 10° NNE 03:11:36 27° ENE 03:11:36 27° ENE visible
31 Jul 5.3 04:45:11 10° NW 04:46:42 15° WNW 04:46:42 15° WNW visible
01 Aug 5.5 02:55:46 10° NNE 02:58:15 23° NE 02:58:15 23° NE visible
01 Aug 5.3 04:32:02 10° NW 04:33:22 16° WNW 04:33:22 16° WNW visible
02 Aug 5.8 02:42:57 10° NNE 02:44:56 20° NE 02:44:56 20° NE visible
02 Aug 5.4 04:18:55 10° NW 04:20:03 15° NW 04:20:03 15° NW visible
03 Aug 6.0 02:30:10 10° NNE 02:31:40 16° NE 02:31:40 16° NE visible
03 Aug 5.6 04:05:50 10° NW 04:06:47 15° NW 04:06:47 15° NW visible
04 Aug 6.2 02:17:25 10° NNE 02:18:27 14° NE 02:18:27 14° NE visible
04 Aug 5.7 03:52:46 10° NNW 03:53:34 14° NW 03:53:34 14° NW visible
